METEOR 1-17 DEB, 57539

Orbit data source: Space-Track

METEOR 1-17 DEB, 57539 is space debris in LEO originally from a Commonwealth of Independent States-origin launch on Wed, 24 Apr 1974 UTC launched from the Plesetsk Missile And Space Complex (PKMTR). Debris objects in space refer to the collection of defunct objects orbiting the Earth. Examples of debris include non-operational satellites, rocket bodies, and fragments generated from explosions, collisions, or faulty payload assembly.

Loading next visibility...
Identifier
57539, 1974-025E
Orbit
LEO
Country
Flag of CISCIS
Related business
Manufacturer
VNIIEM
Mission
Spacecraft
Bus & Motor
Unknown
Mass
Unknown
Launch date (UTC)
1974-04-24 (52 years ago)
Launch vehicle
Unknown
Launch site
Plesetsk Missile And Space Complex (PKMTR)
Object type
Payload
Rocket body
Debris
Shape & HBR
Unknown shape, 0.1 m
Radar Cross Section
Small (<0.1 m²)

Expand to show TLE details & history
Last TLE update: 3 days ago

TLE from 3 days ago
0 METEOR 1-17 DEB
1 57539U 74025E   26170.27902030  .00002864  00000-0  13579-2 0  9993
2 57539  81.2087 285.7465 0001436 264.6603  95.4409 14.19363474150464
Epoch: 2026-06-19T06:41Z
TLE epoch observation values (Epoch: 2026-06-19T06:41:47.353Z)
Latitude
-0.00005°
Longitude
-82.21109°
Altitude
830.516 km
Speed
7.438 km/s
True Right ascension
19h 02m 59s
True Declination
0° 00' 00"
Sunlit
Object was in full shadow at epoch
Visualization orbit readout
Latitude
Unknown
Longitude
Unknown
Altitude
Unknown
Speed
Unknown
Apparent Right ascension
Unknown
Apparent Declination
Unknown
Sunlit
N/A
Visualization observer readout
Local Sidereal Time
21:39:47
Azimuth
Unknown
Elevation
Unknown
Doppler factor
Unknown
Orbital elements
Apogee altitude
825.704 km
Perigee altitude
823.635 km
Semi-major axis
7,202.807 km
Eccentricity
0.00014
Inclination
81.2087°
RAAN
285.7465°
Arg. of periapsis
264.6603°
True anomaly
95.45728°
Mean anomaly
95.4409°
Eccentric anomaly
95.44909°
Mean motion
3.55051 °/min
Orbital period
101.39 mins
BSTAR
0.0013579
Loading maneuver chart data...
Computing Atmospheric mass density...
Loading historical data...
Loading historical data...
Loading historical data...
Loading historical data...
Loading historical data...
Loading historical data...
Loading historical data...

Documentation

Showing up to 5 results
|